Content
SEND FEEDBACK

Daily
Averages
Monthly
Summary
United States of America

ANN ARBOR, MICHIGAN


Home > North America > United States > Michigan
Elevation: 759 feet     Latitude: 42 17N     Longitude: 083 43W

WEATHER
 
SELECT A DAY
Number of Records: 208,012;   Date Range: 1/1/95 - 11/22/14
 
SHARE

PRINT THIS DATA

[ ← Previous Day ]
WEATHER ALMANAC - JULY 22, 2013
[ Next Day → ]
[ °C ]   °F
Weather ElementAverageHighLow
Temperature73 °F80.1 °F (3:53 pm)64.9 °F (10:53 pm)
Dewpoint66 °F69.1 °F (10:53 am)62.1 °F (5:53 pm)
Humidity79.7 %97 % (10:53 pm)54 % (5:53 pm)
Barometer29.85 in29.94 in (1:53 am)29.77 in (8:53 pm)
Wind Speed3.4 mph8.1 mph (11:53 am)
Weather ElementAverage
Visibility8.7 mi
Wind DirectionESE (107 °)

Weather ElementTotal
Precipitation0.03 in
Cooling Degree Days7.5 (Base 65)
Growing Degree Days22.5 (Base 50)
Averaged from 23 records on July 22, 2013
WEATHER CONDITIONS BREAKOUT
WIND DIRECTION BREAKOUT
WEATHER BY HOUR - JULY 22, 2013
[ °C ]   °F
Local TimeTemperatureDewpointHumidityBarometerVisibilityWind DirectionWind SpeedGust SpeedPrecipitationEventsConditions
1:53 AM71.1 °F66.0 °F84 %29.94 in10.0 miCalmClear
2:53 AM71.1 °F66.0 °F84 %29.92 in10.0 miEast (80°)3.5 mphClear
3:53 AM71.1 °F66.0 °F84 %29.91 in10.0 miCalmOvercast
4:53 AM70.0 °F66.9 °F90 %29.91 in7.0 miCalm0.00 inRainLight Rain
5:53 AM69.1 °F66.9 °F93 %29.90 in5.0 miCalm0.02 inRainLight Rain
6:53 AM69.1 °F66.0 °F90 %29.88 in10.0 miESE (120°)6.9 mph0.01 inRainLight Rain
7:53 AM70.0 °F66.9 °F90 %29.88 in10.0 miSE (140°)4.6 mph0.00 inPartly Cloudy
8:53 AM72.0 °F68.0 °F87 %29.89 in10.0 miCalmOvercast
9:53 AM73.0 °F68.0 °F84 %29.87 in10.0 miESE (120°)4.6 mphClear
10:53 AM73.9 °F69.1 °F85 %29.88 in10.0 miSSE (150°)6.9 mphPartly Cloudy
11:53 AM73.9 °F66.9 °F79 %29.88 in10.0 miSouth (180°)8.1 mphScattered Clouds
12:53 PM75.0 °F66.0 °F73 %29.89 in10.0 miSouth (170°)4.6 mphMostly Cloudy
1:53 PM75.0 °F66.0 °F73 %29.87 in10.0 miSouth (180°)3.5 mphMostly Cloudy
2:53 PM78.1 °F66.0 °F66 %29.84 in10.0 miSE (140°)4.6 mphClear
3:53 PM80.1 °F66.9 °F64 %29.83 in10.0 miEast (100°)5.8 mphPartly Cloudy
4:53 PM79.0 °F64.9 °F62 %29.82 in4.0 miVariable5.8 mphHaze
5:53 PM80.1 °F62.1 °F54 %29.80 in10.0 miSW (230°)4.6 mphClear
6:53 PM79.0 °F64.0 °F60 %29.78 in8.0 miSouth (190°)4.6 mphClear
7:53 PM77.0 °F66.9 °F71 %29.78 in8.0 miSW (220°)3.5 mphClear
8:53 PM73.9 °F66.0 °F76 %29.77 in10.0 miSouth (170°)3.5 mphClear
9:53 PM66.9 °F64.9 °F93 %29.79 in4.0 miCalmClear
10:53 PM64.9 °F64.0 °F97 %29.79 in6.0 miCalmClear
11:53 PM66.0 °F64.0 °F93 %29.80 in7.0 miWest (270°)3.5 mphClear
Hourly data recorded from KARB, located miles away from Ann Arbor, Michigan







STORIES FROM OUR PARTNERS